Columbia Owens, SC

10:54 PM EDT on March 23, 2017 (GMT -0400)
Columbia Owens Downtown

Weather History for KCUB - August, 2013

Change the Weather History Date:

Tuesday, August 13, 2013

  Actual Average Record
Temperature  
Mean Temperature 86 °F 82 °F  
Max Temperature 96 °F 91 °F 101 °F (2007)
Min Temperature 76 °F 72 °F 66 °F (2006)
Degree Days  
Heating Degree Days 0 0  
Month to date heating degree days 0 0  
Since 1 June heating degree days 0 0  
Since 1 July heating degree days 0 0  
Cooling Degree Days 21 17  
Month to date cooling degree days 236 222  
Year to date cooling degree days 1503 1538  
Since 1 June cooling degree days 1193 1202  
Growing Degree Days 36 (Base 50)    
Moisture  
Dew Point 73 °F    
Average Humidity 71    
Maximum Humidity 94    
Minimum Humidity 42    
Precipitation  
Precipitation 0.00 in 0.16 in 2.30 in (2008)
Month to date precipitation 1.78 2.30  
Year to date precipitation 36.68 29.21  
Sea Level Pressure  
Sea Level Pressure 29.91 in    
Wind  
Wind Speed 5 mph (WSW)    
Max Wind Speed 17 mph    
Max Gust Speed 24 mph    
Visibility 10 miles    
Events      
T = Trace of Precipitation, MM = Missing Value Source: NWS Daily Summary

Daily Weather History Graph

Daily Weather History Graph

Search for Another Location

Airport or City:

Trip Planner

Search our weather history database for the weather conditions in past years. The results will help you decide how hot, cold, wet, or windy it might be!

Date:

Astronomy

Aug. 13, 2013 Rise Set
Actual Time 6:44 AM EDT 8:12 PM EDT
Civil Twilight 6:17 AM EDT 8:39 PM EDT
Nautical Twilight 5:45 AM EDT 9:10 PM EDT
Astronomical Twilight 5:12 AM EDT 9:44 PM EDT
Moon 1:15 PM EDT (8/13) No Moon Set
Length of Visible Light 14h 21m
Length of Day
13h 28m
Waxing Crescent, 41% of the Moon is Illuminated
Aug 13
Waxing Crescent
Aug 14
First Quarter
Aug 20
Full
Aug 28
Last Quarter
Sep 5
New

Hourly Weather History & Observations

Time (EDT) Temp. Heat Index Dew Point Humidity Pressure Visibility Wind Dir Wind Speed Gust Speed Precip Events Conditions
12:53 AM 79.0 °F - 75.9 °F 90% 29.98 in 9.0 mi Calm Calm - N/A   Clear
1:53 AM 78.1 °F - 75.9 °F 93% 29.97 in 8.0 mi Calm Calm - N/A   Clear
2:53 AM 78.1 °F - 75.0 °F 90% 29.96 in 10.0 mi Calm Calm - N/A   Mostly Cloudy
3:53 AM 78.1 °F - 75.0 °F 90% 29.96 in 10.0 mi South 4.6 mph - N/A   Scattered Clouds
4:53 AM 77.0 °F - 75.0 °F 94% 29.95 in 10.0 mi Calm Calm - N/A   Partly Cloudy
5:53 AM 77.0 °F - 75.0 °F 94% 29.94 in 7.0 mi Calm Calm - N/A   Clear
6:53 AM 77.0 °F - 73.9 °F 90% 29.94 in 6.0 mi Calm Calm - N/A   Clear
7:53 AM 77.0 °F - 73.9 °F 90% 29.94 in 8.0 mi Calm Calm - N/A   Clear
8:53 AM 81.0 °F 86.2 °F 73.9 °F 79% 29.96 in 10.0 mi WSW 5.8 mph - N/A   Clear
9:53 AM 84.9 °F 92.1 °F 73.9 °F 69% 29.96 in 10.0 mi WSW 5.8 mph - N/A   Clear
10:53 AM 88.0 °F 95.6 °F 73.0 °F 61% 29.95 in 10.0 mi WSW 11.5 mph 17.3 mph N/A   Clear
11:53 AM 90.0 °F 97.9 °F 73.0 °F 57% 29.94 in 10.0 mi WSW 9.2 mph 17.3 mph N/A   Clear
12:53 PM 93.0 °F 101.9 °F 73.0 °F 52% 29.92 in 10.0 mi WSW 10.4 mph - N/A   Partly Cloudy
1:53 PM 91.9 °F 97.4 °F 70.0 °F 48% 29.90 in 10.0 mi West 11.5 mph 21.9 mph N/A   Scattered Clouds
2:53 PM 95.0 °F 101.3 °F 70.0 °F 44% 29.87 in 10.0 mi West 12.7 mph - N/A   Partly Cloudy
3:53 PM 96.1 °F 101.6 °F 69.1 °F 41% 29.85 in 10.0 mi WSW 10.4 mph 19.6 mph N/A   Partly Cloudy
4:53 PM 91.9 °F 101.3 °F 73.9 °F 55% 29.83 in 10.0 mi SSW 6.9 mph - N/A   Mostly Cloudy
5:53 PM 93.0 °F 99.0 °F 70.0 °F 47% 29.83 in 10.0 mi West 9.2 mph - N/A   Mostly Cloudy
6:53 PM 88.0 °F 93.8 °F 71.1 °F 57% 29.83 in 10.0 mi WNW 6.9 mph 18.4 mph N/A   Clear
7:53 PM 86.0 °F 93.0 °F 73.0 °F 65% 29.83 in 10.0 mi West 4.6 mph - N/A   Clear
8:53 PM 84.0 °F 91.2 °F 73.9 °F 72% 29.85 in 10.0 mi Calm Calm - N/A   Clear
9:53 PM 82.0 °F 88.6 °F 75.0 °F 79% 29.87 in 10.0 mi Calm Calm - N/A   Clear
10:53 PM 82.9 °F 89.4 °F 73.9 °F 74% 29.88 in 10.0 mi Calm Calm - N/A   Partly Cloudy
11:53 PM 81.0 °F 86.2 °F 73.9 °F 79% 29.87 in 10.0 mi Calm Calm - N/A   Clear